Weather History for Amsterdam, Netherlands

Change the Weather History Date:

Monday, February 25, 2013

  Actual Average Record
Temperature  
Mean Temperature 35 °F -  
Max Temperature 37 °F 47 °F 53 °F (1997)
Min Temperature 33 °F 36 °F 28 °F (2005)
Degree Days  
Heating Degree Days 30    
Moisture  
Dew Point 33 °F    
Average Humidity 90    
Maximum Humidity 93    
Minimum Humidity 85    
Precipitation  
Precipitation 0.00 in - - ()
Sea Level Pressure  
Sea Level Pressure 30.23 in    
Wind  
Wind Speed 12 mph ()    
Max Wind Speed 18 mph    
Max Gust Speed 29 mph    
Visibility 3.0 miles    
Events Rain    
Averages and records for this station are not official NWS values.
T = Trace of Precipitation, MM = Missing Value Source: Averaged Metar Reports

Daily Weather History Graph

Daily Weather History Graph

Search for Another Location

Airport:

Trip Planner

Search our weather history database for the weather conditions in past years. The results will help you decide how hot, cold, wet, or windy it might be!

Date:

Astronomy

Feb. 25, 2013 Rise Set
Actual Time 7:35 AM CET 6:12 PM CET
Civil Twilight 7:01 AM CET 6:47 PM CET
Nautical Twilight 6:22 AM CET 7:26 PM CET
Astronomical Twilight 5:42 AM CET 8:06 PM CET
Moon 6:15 PM CET (2/25) 6:54 AM CET (2/25)
Length of Visible Light 11h 46m
Length of Day
10h 37m
Full, 100% of the Moon is Illuminated
Feb 25
Full
Feb 25
Full
Mar 4
Last Quarter
Mar 11
New
Mar 19
First Quarter

Hourly Weather History & Observations

Time (CET) Temp. Windchill Dew Point Humidity Pressure Visibility Wind Dir Wind Speed Gust Speed Precip Events Conditions
12:25 AM 33.8 °F 26.4 °F 32.0 °F 93% 30.15 in 4.3 mi NNE 9.2 mph - N/A   Overcast
12:55 AM 33.8 °F 26.4 °F 32.0 °F 93% 30.15 in 3.7 mi NNE 9.2 mph - N/A   Overcast
1:00 AM 34 °F - 32 °F 89% 30.17 in 3 mi NNE 11.2 mph - -   Mist
1:25 AM 33.8 °F 25.3 °F 32.0 °F 93% 30.15 in 3.7 mi NNE 11.5 mph - N/A   Overcast
1:55 AM 33.8 °F 25.3 °F 32.0 °F 93% 30.15 in 3.1 mi NNE 11.5 mph - N/A   Overcast
2:25 AM 33.8 °F 25.3 °F 32.0 °F 93% 30.15 in 3.7 mi NNE 11.5 mph - N/A   Overcast
2:55 AM 33.8 °F 24.3 °F 32.0 °F 93% 30.15 in 3.1 mi NNE 13.8 mph - N/A   Overcast
3:25 AM 33.8 °F 24.3 °F 32.0 °F 93% 30.15 in 3.7 mi NNE 13.8 mph - N/A   Overcast
3:55 AM 33.8 °F 24.3 °F 32.0 °F 93% 30.15 in 3.7 mi NNE 13.8 mph - N/A   Overcast
4:00 AM 35 °F - 32 °F 85% 30.17 in 4 mi NNE 15.7 mph - -   Mist
4:25 AM 33.8 °F 24.3 °F 32.0 °F 93% 30.15 in 3.7 mi NNE 13.8 mph - N/A   Overcast
4:55 AM 35.6 °F 26.6 °F 32.0 °F 87% 30.15 in 3.7 mi NNE 13.8 mph - N/A   Mostly Cloudy
5:55 AM 35.6 °F 26.2 °F 32.0 °F 87% 30.15 in 4.3 mi NNE 15.0 mph - N/A   Overcast
6:25 AM 35.6 °F 26.6 °F 32.0 °F 87% 30.18 in 4.3 mi NNE 13.8 mph - N/A   Overcast
6:55 AM 35.6 °F 27.1 °F 32.0 °F 87% 30.18 in 3.7 mi NNE 12.7 mph - N/A   Overcast
7:00 AM 35 °F - 33 °F 87% 30.20 in 4 mi NE 13.4 mph - -   Mist
7:25 AM 35.6 °F 26.2 °F 32.0 °F 87% 30.18 in 3.7 mi NNE 15.0 mph - N/A   Overcast
7:55 AM 35.6 °F 26.6 °F 32.0 °F 87% 30.21 in 2.8 mi NNE 13.8 mph - N/A   Overcast
8:25 AM 35.6 °F 26.2 °F 32.0 °F 87% 30.18 in 2.8 mi NNE 15.0 mph - N/A   Overcast
8:55 AM 35.6 °F 27.1 °F 32.0 °F 87% 30.21 in 3.1 mi NE 12.7 mph - N/A   Mostly Cloudy
9:25 AM 35.6 °F 26.6 °F 32.0 °F 87% 30.21 in 3.1 mi NE 13.8 mph - N/A   Overcast
9:55 AM 35.6 °F 26.6 °F 33.8 °F 93% 30.21 in 3.1 mi NE 13.8 mph - N/A   Overcast
10:00 AM 35 °F - 33 °F 88% 30.24 in 4 mi NE 13.4 mph - -   Mist
10:25 AM 35.6 °F 25.9 °F 32.0 °F 87% 30.24 in 2.8 mi NE 16.1 mph - N/A   Overcast
10:55 AM 35.6 °F 26.2 °F 33.8 °F 93% 30.24 in 2.5 mi NE 15.0 mph - N/A   Overcast
11:25 AM 35.6 °F 27.1 °F 33.8 °F 93% 30.24 in 2.5 mi NNE 12.7 mph - N/A   Overcast
11:55 AM 35.6 °F 27.5 °F 33.8 °F 93% 30.24 in 1.9 mi NNE 11.5 mph - N/A   Overcast
12:25 PM 35.6 °F 27.1 °F 33.8 °F 93% 30.24 in 1.9 mi NNE 12.7 mph 24.2 mph N/A   Overcast
12:55 PM 37.4 °F 28.9 °F 33.8 °F 87% 30.24 in 2.2 mi NNE 13.8 mph 25.3 mph N/A   Overcast
1:00 PM 37 °F - 35 °F 87% 30.26 in 2 mi NNE 13.4 mph - -   Mist
1:25 PM 37.4 °F 29.3 °F 33.8 °F 87% 30.24 in 2.5 mi NNE 12.7 mph - N/A   Overcast
1:55 PM 37.4 °F 28.5 °F 33.8 °F 87% 30.24 in 3.1 mi NNE 15.0 mph - N/A   Mostly Cloudy
2:25 PM 37.4 °F 28.5 °F 33.8 °F 87% 30.24 in 3.1 mi NNE 15.0 mph - N/A   Mostly Cloudy
2:55 PM 37.4 °F 28.9 °F 33.8 °F 87% 30.24 in 3.1 mi NNE 13.8 mph - N/A   Mostly Cloudy
3:25 PM 37.4 °F 28.5 °F 33.8 °F 87% 30.24 in 3.1 mi NNE 15.0 mph - N/A   Overcast
3:55 PM 37.4 °F 27.5 °F 33.8 °F 87% 30.24 in 3.1 mi NNE 18.4 mph - N/A   Mostly Cloudy
4:00 PM 36 °F - 33 °F 87% 30.25 in 3 mi NNE 17.9 mph - -   Mist
4:25 PM 37.4 °F 27.5 °F 33.8 °F 87% 30.24 in - NNE 18.4 mph - N/A   Overcast
4:55 PM 35.6 °F 25.5 °F 33.8 °F 93% 30.24 in 2.8 mi NE 17.3 mph 28.8 mph N/A   Overcast
5:25 PM 35.6 °F 25.5 °F 33.8 °F 93% 30.24 in - NE 17.3 mph - N/A Rain Light Rain
5:55 PM 35.6 °F 25.5 °F 33.8 °F 93% 30.24 in - NE 17.3 mph - N/A Rain Light Rain
6:25 PM 35.6 °F 25.9 °F 33.8 °F 93% 30.24 in 2.5 mi NE 16.1 mph - N/A Rain Light Rain
6:55 PM 35.6 °F 26.6 °F 33.8 °F 93% 30.27 in 2.2 mi NE 13.8 mph - N/A Rain Light Rain
7:00 PM 35 °F - 33 °F 92% 30.28 in 2 mi NE 13.4 mph - - Rain Light Rain Showers
7:25 PM 35.6 °F 26.6 °F 33.8 °F 93% 30.27 in - NE 13.8 mph - N/A Rain Light Rain
7:55 PM 35.6 °F 26.6 °F 33.8 °F 93% 30.27 in - NE 13.8 mph - N/A Rain Light Rain
8:55 PM 35.6 °F 26.2 °F 33.8 °F 93% 30.30 in - NE 15.0 mph - N/A   Overcast
9:25 PM 35.6 °F 26.6 °F 33.8 °F 93% 30.30 in 1.9 mi NE 13.8 mph - N/A   Overcast
9:55 PM 35.6 °F 26.2 °F 33.8 °F 93% 30.30 in 1.7 mi NE 15.0 mph - N/A   Overcast
10:00 PM 36 °F - 34 °F 90% 30.33 in 2 mi NE 15.7 mph - -   Mist
10:25 PM 35.6 °F 25.9 °F 33.8 °F 93% 30.30 in 1.7 mi NE 16.1 mph - N/A   Overcast
10:55 PM 35.6 °F 26.6 °F 33.8 °F 93% 30.33 in 1.9 mi NE 13.8 mph - N/A   Overcast
11:25 PM 35.6 °F 26.6 °F 33.8 °F 93% 30.33 in 1.9 mi NE 13.8 mph - N/A   Overcast
11:55 PM 35.6 °F 25.9 °F 33.8 °F 93% 30.33 in - NE 16.1 mph - N/A   Overcast